QPF
0.00 0.01 0.03 0.07 0.05 0.04 0.04 0.04 0.05 0.06 0.06 0.06 0.06 0.06 0.07 0.07 0.06 0.07 0.08 0.08 0.10 0.14 0.17 0.16 0.10 0.13 0.16 0.12 0.09 0.08 0.08 0.07 0.07 0.08 0.10 0.13 0.14 0.12 0.07 0.05 0.04 0.07 0.11
0.01 0.02 0.03 0.03 0.03 0.04 0.04 0.03 0.04 0.05 0.05 0.05 0.05 0.04 0.05 0.05 0.06 0.06 0.06 0.08 0.11 0.12 0.11 0.10 0.10 0.12 0.12 0.10 0.08 0.09 0.09 0.07 0.06 0.06 0.06 0.08 0.11 0.11 0.08 0.07 0.05 0.07 0.11
0.01 0.01 0.01 0.02 0.02 0.02 0.04 0.04 0.04 0.04 0.04 0.04 0.03 0.03 0.05 0.05 0.05 0.05 0.05 0.07 0.10 0.13 0.10 0.10 0.16 0.15 0.14 0.12 0.09 0.10 0.09 0.07 0.06 0.05 0.05 0.05 0.08 0.09 0.07 0.06 0.07 0.07 0.07
0.00 0.01 0.01 0.03 0.04 0.02 0.02 0.02 0.02 0.03 0.04 0.03 0.03 0.03 0.04 0.03 0.03 0.03 0.05 0.07 0.10 0.10 0.07 0.09 0.20 0.17 0.14 0.14 0.09 0.09 0.08 0.08 0.08 0.05 0.04 0.07 0.07 0.08 0.07 0.06 0.07 0.07 0.05
0.00 0.00 0.01 0.03 0.03 0.01 0.02 0.02 0.02 0.03 0.03 0.04 0.04 0.04 0.04 0.03 0.04 0.04 0.06 0.08 0.09 0.08 0.07 0.11 0.23 0.20 0.18 0.13 0.09 0.09 0.09 0.07 0.06 0.04 0.04 0.05 0.05 0.06 0.07 0.08 0.06 0.05 0.05
0.00 0.00 0.01 0.02 0.02 0.02 0.03 0.03 0.02 0.02 0.03 0.04 0.06 0.05 0.04 0.04 0.04 0.05 0.07 0.08 0.09 0.07 0.08 0.12 0.20 0.21 0.18 0.11 0.08 0.09 0.08 0.05 0.03 0.02 0.03 0.03 0.03 0.06 0.07 0.07 0.06 0.06 0.06
0.00 0.00 0.01 0.02 0.01 0.01 0.02 0.02 0.02 0.03 0.04 0.04 0.05 0.05 0.04 0.04 0.05 0.05 0.06 0.08 0.08 0.08 0.10 0.11 0.15 0.17 0.14 0.10 0.10 0.09 0.06 0.03 0.02 0.02 0.02 0.02 0.04 0.07 0.07 0.06 0.08 0.08 0.09
0.00 0.00 0.00 0.01 0.01 0.01 0.02 0.03 0.02 0.02 0.04 0.05 0.06 0.05 0.04 0.05 0.05 0.04 0.06 0.07 0.07 0.09 0.09 0.11 0.11 0.11 0.10 0.09 0.08 0.07 0.05 0.02 0.01 0.01 0.01 0.02 0.04 0.05 0.05 0.06 0.06 0.07 0.08
0.00 0.00 0.00 0.00 0.01 0.01 0.03 0.03 0.02 0.03 0.03 0.03 0.03 0.03 0.04 0.05 0.06 0.05 0.06 0.06 0.07 0.09 0.08 0.07 0.07 0.07 0.07 0.07 0.06 0.06 0.05 0.03 0.01 0.01 0.01 0.02 0.03 0.03 0.03 0.04 0.05 0.06 0.08
0.00 0.00 0.00 0.00 0.00 0.00 0.01 0.02 0.03 0.04 0.03 0.02 0.03 0.03 0.04 0.06 0.07 0.06 0.06 0.07 0.09 0.09 0.08 0.06 0.05 0.05 0.06 0.06 0.06 0.06 0.04 0.03 0.01 0.01 0.01 0.03 0.05 0.04 0.04 0.03 0.04 0.07 0.08
0.00 0.00 0.00 0.00 0.00 0.00 0.01 0.02 0.01 0.02 0.02 0.02 0.03 0.04 0.03 0.02 0.04 0.07 0.09 0.10 0.10 0.09 0.07 0.06 0.06 0.05 0.05 0.05 0.05 0.04 0.04 0.03 0.01 0.01 0.02 0.05 0.06 0.06 0.05 0.06 0.06 0.05 0.06
0.00 0.00 0.00 0.00 0.00 0.00 0.00 0.01 0.00 0.00 0.01 0.01 0.01 0.02 0.01 0.01 0.03 0.09 0.13 0.12 0.08 0.05 0.04 0.06 0.06 0.03 0.02 0.02 0.03 0.02 0.02 0.05 0.04 0.02 0.04 0.07 0.06 0.06 0.05 0.05 0.04 0.03 0.03
0.00 0.00 0.00 0.00 0.00 0.00 0.01 0.01 0.00 0.00 0.00 0.01 0.01 0.01 0.01 0.00 0.01 0.02 0.03 0.03 0.02 0.01 0.01 0.01 0.01 0.01 0.01 0.01 0.01 0.01 0.01 0.03 0.05 0.04 0.06 0.08 0.08 0.09 0.05 0.06 0.04 0.03 0.02
0.00 0.00 0.00 0.00 0.00 0.00 0.01 0.01 0.01 0.01 0.01 0.01 0.01 0.01 0.01 0.01 0.01 0.00 0.00 0.01 0.01 0.00 0.00 0.01 0.00 0.01 0.01 0.01 0.00 0.01 0.01 0.02 0.03 0.03 0.05 0.06 0.08 0.09 0.08 0.06 0.05 0.03 0.03
0.01 0.00 0.00 0.00 0.00 0.00 0.01 0.01 0.02 0.03 0.04 0.02 0.01 0.01 0.01 0.02 0.02 0.01 0.01 0.01 0.01 0.00 0.01 0.00 0.00 0.00 0.01 0.01 0.01 0.00 0.01 0.02 0.02 0.01 0.02 0.05 0.07 0.08 0.09 0.07 0.06 0.05 0.04
0.00 0.00 0.00 0.00 0.00 0.01 0.01 0.02 0.03 0.04 0.03 0.02 0.01 0.01 0.01 0.01 0.02 0.02 0.01 0.02 0.01 0.01 0.01 0.00 0.00 0.00 0.01 0.01 0.00 0.00 0.00 0.01 0.01 0.01 0.01 0.02 0.05 0.06 0.08 0.08 0.07 0.07 0.06
0.00 0.01 0.01 0.01 0.01 0.01 0.01 0.01 0.03 0.03 0.03 0.03 0.02 0.01 0.02 0.02 0.02 0.01 0.01 0.01 0.01 0.01 0.02 0.01 0.01 0.00 0.00 0.01 0.00 0.00 0.00 0.01 0.01 0.01 0.01 0.00 0.01 0.03 0.04 0.05 0.05 0.06 0.06
0.00 0.00 0.01 0.01 0.02 0.01 0.01 0.02 0.02 0.03 0.04 0.03 0.02 0.02 0.03 0.03 0.03 0.03 0.02 0.02 0.01 0.01 0.01 0.01 0.01 0.01 0.00 0.00 0.00 0.00 0.00 0.01 0.01 0.01 0.00 0.00 0.01 0.01 0.02 0.03 0.03 0.04 0.05
0.01 0.00 0.00 0.01 0.02 0.02 0.02 0.03 0.02 0.02 0.02 0.03 0.03 0.04 0.04 0.04 0.04 0.04 0.03 0.02 0.01 0.01 0.01 0.01 0.01 0.00 0.00 0.00 0.00 0.00 0.00 0.01 0.01 0.01 0.01 0.01 0.01 0.01 0.00 0.01 0.02 0.03 0.05
0.01 0.01 0.01 0.01 0.01 0.02 0.01 0.01 0.01 0.01 0.01 0.01 0.02 0.03 0.03 0.02 0.02 0.02 0.02 0.01 0.00 0.00 0.01 0.01 0.00 0.00 0.00 0.00 0.00 0.01 0.01 0.01 0.01 0.01 0.01 0.01 0.01 0.00 0.01 0.02 0.02 0.03 0.04
0.02 0.02 0.02 0.01 0.01 0.01 0.01 0.01 0.02 0.02 0.01 0.01 0.01 0.02 0.01 0.01 0.01 0.01 0.01 0.00 0.01 0.01 0.01 0.01 0.01 0.01 0.00 0.00 0.01 0.01 0.01 0.01 0.00 0.01 0.01 0.01 0.01 0.01 0.03 0.02 0.02 0.02 0.03
0.02 0.02 0.02 0.01 0.01 0.02 0.02 0.03 0.04 0.04 0.02 0.01 0.01 0.01 0.01 0.01 0.01 0.01 0.02 0.01 0.01 0.01 0.02 0.02 0.01 0.01 0.01 0.00 0.01 0.01 0.00 0.00 0.00 0.01 0.01 0.01 0.01 0.02 0.03 0.02 0.02 0.02 0.03
0.01 0.01 0.01 0.01 0.01 0.01 0.02 0.03 0.04 0.05 0.03 0.01 0.00 0.00 0.01 0.01 0.02 0.02 0.02 0.01 0.01 0.01 0.02 0.01 0.01 0.01 0.01 0.01 0.00 0.00 0.00 0.01 0.00 0.01 0.01 0.01 0.02 0.03 0.03 0.02 0.02 0.02 0.02
0.01 0.01 0.01 0.01 0.01 0.01 0.01 0.02 0.03 0.04 0.03 0.01 0.01 0.00 0.00 0.01 0.01 0.03 0.02 0.01 0.01 0.01 0.01 0.01 0.01 0.02 0.02 0.01 0.01 0.00 0.01 0.01 0.01 0.01 0.01 0.01 0.02 0.03 0.03 0.02 0.02 0.02 0.02
0.01 0.01 0.01 0.01 0.00 0.01 0.01 0.02 0.03 0.03 0.02 0.02 0.02 0.01 0.00 0.00 0.00 0.01 0.02 0.02 0.01 0.01 0.00 0.00 0.01 0.01 0.01 0.01 0.01 0.01 0.01 0.01 0.01 0.01 0.01 0.01 0.02 0.04 0.03 0.03 0.02 0.02 0.01
0.01 0.01 0.02 0.01 0.01 0.01 0.02 0.02 0.02 0.02 0.02 0.01 0.01 0.01 0.00 0.00 0.00 0.00 0.01 0.02 0.02 0.01 0.01 0.01 0.00 0.00 0.01 0.01 0.01 0.01 0.02 0.02 0.01 0.01 0.01 0.01 0.02 0.03 0.03 0.02 0.01 0.01 0.01
MSLP
1013.97 1013.30 1012.75 1012.35 1012.08 1011.91 1011.80 1011.71 1011.59 1011.44 1011.26 1011.07 1010.89 1010.74 1010.63 1010.55 1010.51 1010.48 1010.45 1010.42 1010.38 1010.34 1010.31 1010.29 1010.32 1010.38 1010.48 1010.61 1010.77 1010.94 1011.11 1011.27 1011.40 1011.51 1011.59 1011.67 1011.76 1011.87 1012.00 1012.18 1012.38 1012.60 1012.82
1013.99 1013.37 1012.85 1012.48 1012.23 1012.08 1011.98 1011.89 1011.77 1011.63 1011.47 1011.31 1011.16 1011.05 1010.99 1010.95 1010.95 1010.94 1010.92 1010.89 1010.84 1010.78 1010.73 1010.71 1010.71 1010.76 1010.85 1010.97 1011.11 1011.27 1011.43 1011.59 1011.72 1011.84 1011.95 1012.04 1012.13 1012.24 1012.37 1012.54 1012.74 1012.96 1013.19
1013.95 1013.37 1012.89 1012.55 1012.33 1012.21 1012.13 1012.06 1011.97 1011.85 1011.71 1011.57 1011.46 1011.38 1011.33 1011.32 1011.32 1011.32 1011.30 1011.26 1011.20 1011.14 1011.10 1011.07 1011.09 1011.14 1011.23 1011.35 1011.49 1011.65 1011.82 1011.99 1012.14 1012.29 1012.41 1012.52 1012.62 1012.73 1012.86 1013.02 1013.21 1013.43 1013.67
1013.86 1013.32 1012.89 1012.60 1012.42 1012.33 1012.28 1012.24 1012.17 1012.08 1011.96 1011.84 1011.74 1011.67 1011.62 1011.60 1011.59 1011.58 1011.55 1011.50 1011.45 1011.41 1011.39 1011.40 1011.45 1011.53 1011.65 1011.79 1011.95 1012.13 1012.32 1012.51 1012.69 1012.86 1013.01 1013.14 1013.25 1013.35 1013.47 1013.61 1013.79 1014.01 1014.25
1013.77 1013.29 1012.91 1012.67 1012.54 1012.49 1012.47 1012.46 1012.41 1012.33 1012.22 1012.10 1011.99 1011.91 1011.85 1011.80 1011.77 1011.73 1011.69 1011.65 1011.63 1011.62 1011.66 1011.73 1011.84 1011.99 1012.15 1012.34 1012.53 1012.74 1012.95 1013.16 1013.37 1013.57 1013.74 1013.88 1014.00 1014.10 1014.20 1014.32 1014.47 1014.68 1014.91
1013.74 1013.32 1013.00 1012.81 1012.73 1012.71 1012.73 1012.72 1012.68 1012.60 1012.48 1012.35 1012.23 1012.12 1012.03 1011.96 1011.90 1011.85 1011.81 1011.79 1011.80 1011.86 1011.96 1012.12 1012.31 1012.54 1012.77 1013.00 1013.23 1013.47 1013.70 1013.93 1014.16 1014.38 1014.57 1014.72 1014.84 1014.92 1015.00 1015.09 1015.22 1015.39 1015.61
1013.83 1013.47 1013.22 1013.08 1013.04 1013.05 1013.07 1013.06 1013.00 1012.90 1012.77 1012.62 1012.47 1012.35 1012.24 1012.15 1012.08 1012.02 1011.99 1012.01 1012.07 1012.19 1012.38 1012.62 1012.91 1013.20 1013.50 1013.78 1014.04 1014.29 1014.54 1014.78 1015.02 1015.25 1015.44 1015.60 1015.71 1015.78 1015.83 1015.88 1015.98 1016.12 1016.32
1014.06 1013.77 1013.59 1013.50 1013.48 1013.50 1013.51 1013.47 1013.39 1013.26 1013.10 1012.94 1012.78 1012.65 1012.55 1012.46 1012.39 1012.35 1012.35 1012.40 1012.51 1012.70 1012.96 1013.27 1013.62 1013.98 1014.32 1014.63 1014.90 1015.16 1015.40 1015.64 1015.88 1016.10 1016.30 1016.46 1016.56 1016.61 1016.64 1016.67 1016.73 1016.84 1017.01
1014.45 1014.23 1014.10 1014.06 1014.06 1014.07 1014.05 1013.98 1013.85 1013.69 1013.52 1013.35 1013.21 1013.10 1013.01 1012.96 1012.92 1012.91 1012.93 1013.01 1013.16 1013.39 1013.69 1014.05 1014.44 1014.83 1015.18 1015.49 1015.77 1016.01 1016.23 1016.45 1016.67 1016.89 1017.09 1017.24 1017.34 1017.39 1017.40 1017.41 1017.44 1017.52 1017.67
1014.93 1014.79 1014.73 1014.73 1014.74 1014.73 1014.67 1014.56 1014.40 1014.21 1014.03 1013.87 1013.76 1013.69 1013.66 1013.65 1013.65 1013.67 1013.72 1013.82 1013.99 1014.23 1014.54 1014.91 1015.31 1015.69 1016.04 1016.33 1016.58 1016.79 1016.99 1017.19 1017.39 1017.59 1017.79 1017.94 1018.05 1018.10 1018.11 1018.10 1018.12 1018.18 1018.29
1015.46 1015.41 1015.41 1015.45 1015.47 1015.44 1015.35 1015.20 1015.01 1014.81 1014.63 1014.50 1014.44 1014.43 1014.45 1014.50 1014.55 1014.60 1014.67 1014.77 1014.93 1015.16 1015.45 1015.80 1016.17 1016.52 1016.85 1017.12 1017.33 1017.51 1017.68 1017.84 1018.03 1018.22 1018.41 1018.57 1018.68 1018.75 1018.77 1018.76 1018.77 1018.81 1018.91
1015.96 1016.00 1016.08 1016.16 1016.19 1016.16 1016.05 1015.87 1015.66 1015.46 1015.30 1015.21 1015.20 1015.25 1015.34 1015.44 1015.53 1015.60 1015.67 1015.77 1015.90 1016.09 1016.35 1016.66 1016.99 1017.31 1017.60 1017.85 1018.03 1018.19 1018.32 1018.47 1018.63 1018.81 1018.99 1019.16 1019.28 1019.36 1019.40 1019.41 1019.41 1019.45 1019.53
1016.37 1016.51 1016.66 1016.79 1016.85 1016.82 1016.71 1016.53 1016.32 1016.13 1016.00 1015.95 1015.99 1016.10 1016.23 1016.37 1016.49 1016.58 1016.65 1016.72 1016.83 1016.98 1017.20 1017.47 1017.76 1018.06 1018.33 1018.56 1018.73 1018.87 1018.99 1019.11 1019.25 1019.42 1019.59 1019.75 1019.89 1019.98 1020.03 1020.05 1020.06 1020.09 1020.16
1016.68 1016.90 1017.12 1017.30 1017.39 1017.39 1017.29 1017.13 1016.94 1016.78 1016.69 1016.68 1016.76 1016.90 1017.07 1017.24 1017.37 1017.47 1017.53 1017.59 1017.67 1017.80 1017.99 1018.23 1018.51 1018.80 1019.07 1019.30 1019.48 1019.61 1019.72 1019.83 1019.95 1020.09 1020.24 1020.39 1020.52 1020.62 1020.68 1020.71 1020.72 1020.75 1020.80
1016.87 1017.15 1017.43 1017.65 1017.78 1017.82 1017.76 1017.64 1017.50 1017.39 1017.33 1017.36 1017.46 1017.62 1017.81 1017.99 1018.13 1018.23 1018.30 1018.35 1018.43 1018.56 1018.75 1018.99 1019.28 1019.58 1019.87 1020.11 1020.30 1020.45 1020.56 1020.66 1020.75 1020.86 1020.98 1021.10 1021.20 1021.29 1021.35 1021.38 1021.39 1021.41 1021.44
1016.95 1017.27 1017.58 1017.83 1018.01 1018.10 1018.10 1018.05 1017.97 1017.91 1017.91 1017.96 1018.08 1018.24 1018.42 1018.60 1018.75 1018.86 1018.95 1019.03 1019.14 1019.29 1019.50 1019.77 1020.08 1020.41 1020.72 1021.00 1021.22 1021.38 1021.49 1021.57 1021.63 1021.70 1021.77 1021.85 1021.92 1021.98 1022.02 1022.04 1022.05 1022.05 1022.07
1016.98 1017.30 1017.61 1017.88 1018.10 1018.25 1018.33 1018.36 1018.36 1018.37 1018.41 1018.48 1018.60 1018.76 1018.93 1019.10 1019.26 1019.39 1019.52 1019.65 1019.81 1020.01 1020.27 1020.58 1020.92 1021.28 1021.62 1021.92 1022.16 1022.33 1022.44 1022.51 1022.54 1022.56 1022.58 1022.60 1022.63 1022.65 1022.67 1022.68 1022.68 1022.67 1022.67
1016.99 1017.27 1017.56 1017.83 1018.08 1018.29 1018.46 1018.58 1018.67 1018.76 1018.84 1018.94 1019.06 1019.20 1019.36 1019.53 1019.70 1019.87 1020.05 1020.24 1020.46 1020.72 1021.03 1021.38 1021.75 1022.13 1022.49 1022.80 1023.05 1023.23 1023.34 1023.38 1023.39 1023.37 1023.34 1023.31 1023.29 1023.28 1023.27 1023.27 1023.26 1023.25 1023.24
1017.00 1017.22 1017.47 1017.74 1018.01 1018.28 1018.53 1018.75 1018.93 1019.09 1019.22 1019.35 1019.47 1019.59 1019.74 1019.90 1020.09 1020.30 1020.53 1020.79 1021.08 1021.40 1021.75 1022.12 1022.50 1022.88 1023.23 1023.54 1023.78 1023.96 1024.07 1024.11 1024.10 1024.05 1023.99 1023.92 1023.87 1023.83 1023.81 1023.80 1023.79 1023.79 1023.77
1017.02 1017.18 1017.39 1017.63 1017.93 1018.24 1018.57 1018.88 1019.16 1019.39 1019.57 1019.71 1019.82 1019.94 1020.07 1020.23 1020.44 1020.68 1020.97 1021.29 1021.63 1021.99 1022.35 1022.72 1023.09 1023.44 1023.76 1024.05 1024.28 1024.46 1024.57 1024.61 1024.61 1024.56 1024.48 1024.40 1024.34 1024.28 1024.26 1024.25 1024.25 1024.26 1024.26
1017.04 1017.16 1017.32 1017.55 1017.86 1018.22 1018.62 1019.01 1019.36 1019.65 1019.87 1020.03 1020.14 1020.24 1020.36 1020.52 1020.73 1021.00 1021.33 1021.68 1022.06 1022.43 1022.79 1023.13 1023.45 1023.75 1024.03 1024.29 1024.51 1024.68 1024.81 1024.88 1024.90 1024.87 1024.82 1024.75 1024.68 1024.63 1024.61 1024.62 1024.64 1024.67 1024.68
1017.05 1017.14 1017.28 1017.51 1017.82 1018.22 1018.67 1019.13 1019.55 1019.89 1020.15 1020.31 1020.42 1020.50 1020.60 1020.75 1020.96 1021.25 1021.59 1021.95 1022.33 1022.69 1023.02 1023.31 1023.58 1023.82 1024.05 1024.27 1024.47 1024.66 1024.82 1024.94 1025.01 1025.03 1025.01 1024.97 1024.92 1024.89 1024.88 1024.90 1024.94 1024.98 1025.03
1017.00 1017.11 1017.25 1017.48 1017.81 1018.24 1018.73 1019.24 1019.71 1020.09 1020.37 1020.54 1020.64 1020.71 1020.79 1020.92 1021.12 1021.40 1021.74 1022.10 1022.45 1022.78 1023.06 1023.30 1023.50 1023.68 1023.86 1024.06 1024.26 1024.48 1024.68 1024.86 1024.99 1025.07 1025.10 1025.09 1025.07 1025.05 1025.06 1025.08 1025.13 1025.20 1025.26
1016.88 1017.02 1017.19 1017.44 1017.80 1018.25 1018.78 1019.32 1019.83 1020.24 1020.54 1020.72 1020.81 1020.87 1020.93 1021.05 1021.23 1021.48 1021.80 1022.13 1022.46 1022.74 1022.97 1023.15 1023.30 1023.43 1023.58 1023.77 1023.99 1024.24 1024.49 1024.73 1024.93 1025.06 1025.14 1025.17 1025.17 1025.16 1025.16 1025.18 1025.23 1025.31 1025.38
1016.65 1016.86 1017.07 1017.36 1017.74 1018.22 1018.78 1019.35 1019.87 1020.31 1020.63 1020.83 1020.93 1020.98 1021.04 1021.13 1021.30 1021.53 1021.82 1022.12 1022.41 1022.65 1022.84 1022.98 1023.09 1023.19 1023.33 1023.52 1023.76 1024.05 1024.35 1024.64 1024.89 1025.07 1025.18 1025.23 1025.23 1025.22 1025.20 1025.21 1025.25 1025.31 1025.38
1016.30 1016.60 1016.87 1017.20 1017.62 1018.12 1018.70 1019.29 1019.84 1020.31 1020.65 1020.87 1020.99 1021.06 1021.12 1021.21 1021.36 1021.58 1021.84 1022.12 1022.38 1022.59 1022.75 1022.87 1022.96 1023.06 1023.20 1023.40 1023.67 1023.98 1024.32 1024.65 1024.93 1025.13 1025.25 1025.30 1025.30 1025.26 1025.22 1025.20 1025.21 1025.25 1025.31
Thickness
5754 5757 5758 5759 5760 5761 5761 5762 5762 5764 5764 5765 5765 5766 5767 5767 5768 5768 5769 5770 5771 5772 5773 5773 5774 5773 5773 5772 5772 5772 5771 5771 5771 5771 5771 5771 5772 5771 5771 5771 5770 5770 5770
5755 5756 5757 5757 5758 5759 5759 5760 5760 5761 5761 5762 5762 5763 5763 5764 5765 5765 5766 5766 5767 5767 5768 5769 5770 5770 5770 5770 5769 5769 5768 5768 5768 5767 5767 5768 5768 5768 5768 5768 5768 5768 5767
5754 5755 5755 5756 5756 5756 5757 5757 5758 5758 5759 5759 5759 5759 5760 5761 5762 5762 5763 5763 5763 5763 5764 5765 5766 5766 5766 5766 5765 5765 5764 5764 5764 5764 5764 5764 5765 5766 5766 5765 5765 5765 5764
5753 5753 5753 5754 5754 5754 5754 5755 5755 5755 5756 5756 5756 5756 5757 5758 5758 5759 5759 5760 5760 5760 5760 5761 5761 5762 5762 5761 5761 5760 5760 5759 5759 5759 5760 5761 5762 5762 5762 5762 5762 5762 5761
5752 5751 5751 5751 5751 5751 5752 5752 5752 5752 5752 5753 5753 5753 5754 5754 5755 5755 5755 5756 5756 5756 5756 5757 5758 5759 5757 5757 5756 5755 5755 5755 5755 5755 5755 5756 5757 5758 5759 5758 5759 5758 5757
5749 5749 5749 5749 5749 5749 5749 5749 5749 5750 5749 5749 5749 5750 5750 5750 5751 5751 5752 5752 5752 5752 5752 5752 5753 5754 5753 5752 5751 5751 5750 5750 5750 5750 5751 5752 5753 5754 5754 5754 5754 5754 5754
5747 5747 5746 5746 5746 5746 5746 5746 5746 5746 5746 5746 5746 5746 5746 5746 5747 5747 5747 5747 5747 5747 5747 5747 5747 5748 5747 5747 5746 5746 5746 5745 5745 5745 5746 5747 5748 5749 5749 5750 5750 5750 5750
5744 5744 5744 5743 5743 5743 5743 5743 5743 5743 5743 5743 5743 5742 5742 5742 5742 5742 5743 5743 5742 5742 5742 5742 5742 5742 5742 5741 5741 5741 5741 5741 5740 5741 5741 5742 5744 5744 5745 5745 5745 5745 5745
5742 5741 5741 5740 5740 5740 5740 5740 5740 5740 5739 5739 5739 5739 5738 5738 5738 5738 5738 5738 5738 5737 5737 5737 5737 5736 5736 5736 5736 5736 5736 5736 5736 5736 5737 5738 5739 5739 5739 5740 5740 5740 5741
5739 5738 5737 5737 5737 5737 5737 5736 5736 5736 5735 5735 5735 5734 5734 5733 5733 5733 5733 5733 5733 5732 5732 5731 5731 5731 5731 5731 5731 5730 5730 5730 5731 5731 5732 5733 5733 5734 5734 5734 5735 5735 5735
5735 5734 5734 5734 5733 5733 5733 5732 5732 5731 5731 5730 5730 5729 5729 5728 5728 5727 5728 5728 5727 5727 5726 5726 5726 5725 5725 5725 5725 5724 5724 5725 5725 5726 5727 5728 5728 5729 5729 5729 5729 5730 5730
5730 5731 5731 5731 5730 5730 5730 5729 5728 5727 5727 5726 5725 5724 5724 5724 5723 5722 5722 5722 5722 5721 5721 5720 5720 5719 5719 5718 5718 5719 5719 5719 5720 5721 5722 5723 5723 5724 5724 5724 5724 5725 5725
5728 5729 5729 5728 5727 5727 5726 5725 5724 5724 5723 5722 5721 5720 5719 5719 5718 5717 5716 5716 5716 5715 5715 5714 5714 5713 5713 5712 5712 5713 5713 5713 5714 5715 5716 5718 5718 5719 5719 5719 5719 5720 5720
5726 5726 5727 5726 5725 5724 5723 5722 5721 5720 5719 5718 5717 5716 5715 5714 5713 5712 5711 5710 5710 5710 5710 5709 5708 5708 5707 5707 5707 5707 5707 5708 5708 5709 5711 5712 5713 5714 5714 5714 5715 5715 5715
5724 5725 5725 5724 5723 5721 5720 5719 5718 5717 5715 5714 5713 5712 5711 5710 5709 5708 5706 5706 5706 5705 5705 5704 5703 5703 5702 5702 5702 5702 5702 5702 5703 5703 5704 5706 5708 5709 5709 5710 5710 5710 5711
5724 5724 5724 5722 5721 5719 5717 5716 5715 5714 5712 5711 5710 5709 5708 5706 5705 5704 5703 5702 5701 5701 5700 5699 5698 5697 5697 5697 5696 5697 5697 5697 5697 5698 5699 5700 5702 5703 5704 5705 5705 5705 5706
5723 5723 5722 5721 5719 5717 5715 5714 5712 5711 5710 5708 5707 5706 5705 5703 5702 5701 5700 5698 5697 5696 5695 5694 5693 5693 5692 5692 5691 5692 5692 5692 5692 5693 5693 5695 5695 5696 5698 5699 5699 5700 5701
5723 5721 5721 5720 5717 5715 5713 5711 5710 5708 5707 5705 5704 5703 5702 5700 5699 5697 5696 5695 5694 5692 5691 5690 5688 5687 5686 5686 5686 5686 5687 5687 5687 5687 5688 5689 5689 5690 5691 5692 5694 5695 5696
5721 5720 5718 5717 5715 5712 5710 5709 5707 5706 5704 5703 5701 5700 5699 5698 5696 5694 5693 5691 5690 5688 5687 5686 5684 5683 5681 5681 5680 5680 5681 5681 5682 5682 5683 5683 5683 5684 5685 5686 5688 5689 5691
5719 5717 5715 5714 5712 5710 5708 5706 5704 5702 5701 5700 5699 5698 5696 5695 5693 5692 5690 5688 5687 5685 5683 5682 5680 5679 5678 5677 5677 5675 5675 5676 5677 5677 5677 5678 5678 5679 5680 5681 5682 5684 5685
5716 5714 5712 5710 5708 5707 5704 5701 5699 5697 5696 5696 5695 5695 5693 5692 5691 5689 5688 5686 5684 5682 5680 5679 5677 5675 5673 5673 5672 5669 5670 5671 5672 5672 5673 5673 5674 5674 5675 5676 5677 5678 5680
5713 5711 5710 5708 5706 5705 5703 5700 5697 5695 5694 5693 5692 5691 5690 5689 5688 5687 5685 5683 5682 5679 5677 5676 5675 5672 5670 5670 5668 5665 5662 5663 5666 5668 5668 5669 5669 5670 5671 5672 5673 5674 5675
5710 5709 5709 5706 5705 5703 5701 5698 5695 5692 5690 5688 5688 5687 5687 5687 5686 5684 5683 5681 5680 5678 5675 5674 5673 5671 5668 5667 5667 5665 5659 5656 5657 5661 5663 5664 5664 5665 5666 5667 5668 5669 5671
5708 5708 5707 5705 5703 5701 5699 5696 5692 5688 5684 5684 5684 5684 5684 5684 5683 5682 5681 5680 5678 5676 5674 5673 5672 5670 5668 5665 5665 5664 5663 5660 5656 5654 5657 5659 5660 5661 5662 5663 5664 5665 5666
5706 5705 5704 5702 5700 5698 5696 5694 5691 5687 5685 5683 5682 5681 5681 5680 5680 5680 5679 5678 5676 5675 5674 5672 5671 5669 5668 5666 5664 5662 5659 5657 5656 5653 5651 5653 5655 5657 5658 5659 5660 5661 5662
5703 5702 5700 5698 5696 5695 5693 5691 5688 5685 5682 5680 5678 5677 5677 5677 5677 5677 5677 5676 5675 5674 5673 5671 5670 5668 5667 5665 5663 5662 5660 5657 5655 5653 5650 5649 5650 5652 5654 5656 5656 5657 5658